QPF
0.01 0.01 0.01 0.02 0.01 0.01 0.01 0.01 0.01 0.01 0.01 0.01 0.01 0.00 0.00 0.01 0.01 0.03 0.04 0.05 0.06 0.12 0.14 0.13 0.13 0.11 0.09 0.07 0.05 0.04 0.04 0.04 0.04 0.06 0.06 0.05 0.09 0.14 0.16 0.17 0.13 0.09 0.07
0.01 0.01 0.01 0.01 0.01 0.01 0.00 0.00 0.01 0.01 0.01 0.01 0.00 0.00 0.00 0.00 0.00 0.01 0.02 0.03 0.05 0.09 0.12 0.15 0.13 0.09 0.06 0.06 0.05 0.04 0.04 0.04 0.04 0.05 0.06 0.07 0.09 0.11 0.12 0.13 0.12 0.07 0.05
0.01 0.01 0.01 0.01 0.01 0.01 0.00 0.00 0.00 0.00 0.00 0.01 0.01 0.00 0.01 0.01 0.01 0.01 0.02 0.03 0.04 0.04 0.05 0.08 0.10 0.09 0.08 0.08 0.06 0.05 0.05 0.05 0.04 0.04 0.05 0.08 0.08 0.09 0.08 0.08 0.07 0.06 0.06
0.01 0.01 0.01 0.00 0.01 0.01 0.00 0.00 0.00 0.00 0.00 0.01 0.01 0.02 0.02 0.03 0.02 0.02 0.02 0.02 0.02 0.02 0.02 0.03 0.04 0.06 0.07 0.08 0.06 0.05 0.06 0.05 0.04 0.03 0.04 0.05 0.06 0.07 0.07 0.07 0.06 0.06 0.07
0.01 0.01 0.01 0.01 0.01 0.01 0.00 0.00 0.00 0.01 0.00 0.01 0.02 0.04 0.04 0.04 0.02 0.02 0.01 0.01 0.01 0.01 0.02 0.01 0.02 0.04 0.05 0.06 0.07 0.07 0.06 0.05 0.04 0.04 0.04 0.05 0.06 0.07 0.06 0.05 0.05 0.05 0.05
0.00 0.01 0.01 0.01 0.00 0.01 0.01 0.01 0.00 0.00 0.00 0.02 0.05 0.05 0.05 0.04 0.02 0.01 0.00 0.00 0.01 0.01 0.01 0.01 0.01 0.02 0.04 0.05 0.06 0.07 0.08 0.06 0.05 0.06 0.05 0.05 0.06 0.07 0.06 0.06 0.05 0.05 0.04
0.00 0.01 0.01 0.01 0.01 0.01 0.01 0.01 0.01 0.00 0.01 0.03 0.06 0.04 0.03 0.02 0.01 0.01 0.00 0.00 0.01 0.01 0.01 0.01 0.02 0.02 0.02 0.03 0.05 0.09 0.10 0.07 0.07 0.07 0.07 0.08 0.09 0.07 0.06 0.06 0.05 0.04 0.03
0.00 0.00 0.01 0.01 0.01 0.01 0.01 0.01 0.01 0.01 0.02 0.02 0.03 0.03 0.02 0.02 0.02 0.01 0.00 0.01 0.01 0.01 0.01 0.01 0.01 0.01 0.01 0.02 0.02 0.04 0.05 0.08 0.10 0.09 0.08 0.10 0.09 0.08 0.07 0.06 0.06 0.04 0.04
0.00 0.00 0.00 0.01 0.01 0.01 0.01 0.01 0.01 0.02 0.02 0.01 0.01 0.03 0.04 0.03 0.02 0.02 0.01 0.01 0.01 0.01 0.01 0.02 0.02 0.01 0.01 0.01 0.02 0.03 0.03 0.07 0.13 0.12 0.10 0.12 0.11 0.09 0.08 0.10 0.10 0.09 0.06
0.01 0.00 0.00 0.01 0.01 0.01 0.02 0.01 0.01 0.01 0.02 0.02 0.01 0.01 0.02 0.02 0.02 0.02 0.01 0.01 0.01 0.01 0.01 0.01 0.02 0.01 0.01 0.01 0.02 0.02 0.03 0.06 0.10 0.10 0.12 0.14 0.10 0.07 0.06 0.08 0.12 0.13 0.11
0.01 0.01 0.01 0.01 0.01 0.01 0.02 0.01 0.01 0.01 0.02 0.02 0.02 0.01 0.01 0.01 0.01 0.01 0.01 0.01 0.01 0.01 0.01 0.01 0.01 0.01 0.02 0.02 0.03 0.03 0.03 0.05 0.07 0.08 0.08 0.08 0.07 0.06 0.05 0.05 0.06 0.08 0.08
0.02 0.02 0.01 0.01 0.01 0.01 0.01 0.01 0.02 0.02 0.02 0.02 0.02 0.02 0.02 0.02 0.01 0.01 0.02 0.01 0.01 0.01 0.00 0.01 0.01 0.02 0.02 0.04 0.04 0.03 0.04 0.04 0.06 0.07 0.05 0.04 0.03 0.03 0.03 0.04 0.04 0.04 0.04
0.02 0.03 0.03 0.02 0.02 0.01 0.01 0.02 0.02 0.03 0.04 0.04 0.04 0.03 0.02 0.02 0.02 0.02 0.02 0.02 0.01 0.01 0.01 0.01 0.01 0.02 0.03 0.03 0.03 0.03 0.04 0.03 0.04 0.04 0.05 0.03 0.02 0.02 0.03 0.04 0.04 0.04 0.03
0.03 0.03 0.02 0.02 0.02 0.02 0.02 0.01 0.02 0.02 0.03 0.03 0.04 0.04 0.04 0.03 0.02 0.02 0.02 0.02 0.02 0.01 0.01 0.01 0.01 0.02 0.02 0.02 0.02 0.02 0.02 0.02 0.01 0.01 0.02 0.02 0.02 0.01 0.03 0.04 0.03 0.03 0.03
0.02 0.02 0.02 0.02 0.02 0.01 0.02 0.02 0.02 0.02 0.02 0.02 0.01 0.01 0.02 0.02 0.02 0.02 0.02 0.02 0.03 0.03 0.02 0.01 0.01 0.02 0.02 0.02 0.02 0.02 0.01 0.01 0.00 0.00 0.00 0.01 0.01 0.01 0.03 0.05 0.05 0.04 0.03
0.05 0.04 0.04 0.03 0.03 0.02 0.02 0.02 0.02 0.01 0.02 0.03 0.02 0.01 0.01 0.01 0.01 0.01 0.01 0.02 0.02 0.02 0.02 0.01 0.01 0.01 0.01 0.01 0.02 0.01 0.01 0.00 0.00 0.00 0.00 0.01 0.01 0.01 0.01 0.02 0.03 0.03 0.02
0.04 0.05 0.05 0.04 0.03 0.03 0.03 0.03 0.02 0.02 0.01 0.02 0.02 0.01 0.01 0.01 0.01 0.01 0.01 0.02 0.02 0.03 0.02 0.01 0.01 0.01 0.01 0.01 0.01 0.01 0.00 0.00 0.00 0.01 0.01 0.01 0.01 0.01 0.02 0.02 0.01 0.01 0.01
0.03 0.03 0.03 0.03 0.03 0.03 0.03 0.03 0.03 0.02 0.02 0.02 0.02 0.01 0.01 0.01 0.02 0.01 0.01 0.01 0.01 0.02 0.03 0.02 0.02 0.01 0.02 0.01 0.01 0.01 0.00 0.00 0.01 0.01 0.01 0.01 0.01 0.01 0.01 0.01 0.01 0.02 0.01
0.01 0.01 0.02 0.02 0.02 0.03 0.03 0.02 0.02 0.02 0.02 0.01 0.01 0.01 0.01 0.01 0.01 0.01 0.01 0.01 0.01 0.02 0.02 0.02 0.01 0.01 0.01 0.01 0.00 0.00 0.00 0.00 0.01 0.02 0.01 0.01 0.01 0.01 0.01 0.01 0.00 0.01 0.01
0.01 0.01 0.01 0.01 0.01 0.02 0.02 0.02 0.02 0.02 0.02 0.01 0.01 0.01 0.01 0.01 0.01 0.01 0.01 0.01 0.01 0.01 0.01 0.01 0.01 0.01 0.01 0.01 0.01 0.01 0.01 0.00 0.00 0.01 0.01 0.01 0.01 0.01 0.01 0.01 0.01 0.01 0.01
0.01 0.01 0.01 0.01 0.01 0.02 0.02 0.03 0.02 0.02 0.02 0.01 0.01 0.01 0.01 0.01 0.01 0.01 0.01 0.01 0.01 0.01 0.01 0.01 0.01 0.01 0.01 0.01 0.01 0.02 0.01 0.00 0.00 0.00 0.01 0.01 0.01 0.01 0.01 0.01 0.01 0.01 0.00
0.02 0.01 0.01 0.01 0.01 0.01 0.02 0.02 0.02 0.02 0.02 0.01 0.01 0.01 0.01 0.01 0.02 0.01 0.01 0.01 0.01 0.01 0.01 0.01 0.01 0.01 0.01 0.01 0.01 0.02 0.02 0.01 0.01 0.00 0.00 0.01 0.01 0.01 0.01 0.01 0.01 0.01 0.00
0.02 0.02 0.03 0.02 0.02 0.02 0.02 0.02 0.02 0.02 0.02 0.01 0.01 0.01 0.01 0.01 0.01 0.01 0.01 0.00 0.00 0.01 0.01 0.01 0.01 0.01 0.01 0.01 0.02 0.02 0.02 0.01 0.00 0.00 0.00 0.00 0.01 0.01 0.01 0.01 0.01 0.00 0.00
0.03 0.03 0.03 0.03 0.03 0.03 0.04 0.04 0.04 0.04 0.03 0.02 0.01 0.01 0.01 0.01 0.02 0.02 0.01 0.01 0.01 0.01 0.01 0.01 0.01 0.01 0.01 0.02 0.02 0.02 0.02 0.01 0.00 0.00 0.00 0.00 0.00 0.00 0.00 0.00 0.00 0.00 0.00
0.04 0.05 0.04 0.03 0.03 0.04 0.05 0.05 0.04 0.04 0.04 0.04 0.03 0.02 0.02 0.02 0.02 0.02 0.01 0.01 0.01 0.01 0.01 0.01 0.01 0.01 0.01 0.02 0.02 0.02 0.01 0.01 0.01 0.00 0.00 0.00 0.00 0.00 0.00 0.00 0.00 0.00 0.00
0.03 0.04 0.04 0.03 0.03 0.03 0.04 0.03 0.03 0.03 0.03 0.03 0.03 0.03 0.03 0.03 0.03 0.02 0.02 0.01 0.01 0.01 0.00 0.00 0.00 0.01 0.01 0.01 0.02 0.02 0.02 0.02 0.01 0.01 0.00 0.00 0.00 0.00 0.00 0.00 0.00 0.00 0.00
MSLP
1016.44 1016.65 1016.84 1017.02 1017.15 1017.25 1017.30 1017.32 1017.32 1017.30 1017.26 1017.23 1017.19 1017.17 1017.14 1017.13 1017.10 1017.06 1016.99 1016.88 1016.71 1016.49 1016.24 1015.98 1015.74 1015.55 1015.43 1015.37 1015.38 1015.43 1015.48 1015.51 1015.49 1015.41 1015.28 1015.14 1015.01 1014.93 1014.91 1014.98 1015.11 1015.29 1015.48
1016.68 1016.90 1017.12 1017.31 1017.47 1017.59 1017.67 1017.71 1017.72 1017.71 1017.70 1017.69 1017.68 1017.69 1017.70 1017.71 1017.71 1017.68 1017.61 1017.48 1017.29 1017.04 1016.75 1016.45 1016.18 1015.95 1015.80 1015.71 1015.69 1015.69 1015.70 1015.67 1015.58 1015.44 1015.25 1015.05 1014.88 1014.76 1014.72 1014.77 1014.91 1015.10 1015.31
1016.92 1017.16 1017.40 1017.62 1017.81 1017.96 1018.07 1018.14 1018.18 1018.20 1018.21 1018.23 1018.25 1018.29 1018.33 1018.36 1018.38 1018.36 1018.29 1018.14 1017.93 1017.66 1017.35 1017.03 1016.73 1016.48 1016.29 1016.17 1016.10 1016.05 1015.99 1015.89 1015.72 1015.50 1015.24 1014.97 1014.74 1014.57 1014.50 1014.53 1014.65 1014.85 1015.07
1017.17 1017.42 1017.69 1017.94 1018.17 1018.36 1018.50 1018.60 1018.68 1018.72 1018.76 1018.80 1018.86 1018.92 1018.98 1019.04 1019.07 1019.05 1018.98 1018.83 1018.61 1018.33 1018.01 1017.68 1017.36 1017.09 1016.88 1016.72 1016.60 1016.49 1016.36 1016.17 1015.93 1015.62 1015.28 1014.93 1014.63 1014.40 1014.28 1014.28 1014.38 1014.56 1014.79
1017.42 1017.69 1017.98 1018.26 1018.52 1018.74 1018.92 1019.05 1019.15 1019.22 1019.28 1019.34 1019.42 1019.50 1019.58 1019.66 1019.71 1019.71 1019.64 1019.50 1019.28 1019.01 1018.69 1018.36 1018.05 1017.77 1017.54 1017.35 1017.18 1017.01 1016.81 1016.55 1016.22 1015.83 1015.41 1014.99 1014.62 1014.33 1014.15 1014.10 1014.16 1014.31 1014.52
1017.68 1017.96 1018.27 1018.57 1018.86 1019.10 1019.29 1019.44 1019.55 1019.64 1019.71 1019.79 1019.88 1019.98 1020.08 1020.18 1020.25 1020.27 1020.22 1020.10 1019.91 1019.65 1019.36 1019.04 1018.74 1018.47 1018.23 1018.02 1017.82 1017.61 1017.35 1017.03 1016.63 1016.18 1015.69 1015.21 1014.77 1014.43 1014.19 1014.08 1014.08 1014.18 1014.35
1017.95 1018.25 1018.56 1018.88 1019.17 1019.42 1019.62 1019.76 1019.87 1019.95 1020.02 1020.10 1020.20 1020.31 1020.43 1020.56 1020.65 1020.70 1020.69 1020.61 1020.45 1020.23 1019.97 1019.70 1019.42 1019.17 1018.94 1018.73 1018.52 1018.28 1018.00 1017.64 1017.21 1016.71 1016.18 1015.65 1015.17 1014.77 1014.48 1014.30 1014.24 1014.28 1014.39
1018.24 1018.54 1018.86 1019.18 1019.47 1019.70 1019.88 1020.01 1020.09 1020.15 1020.20 1020.27 1020.36 1020.48 1020.63 1020.77 1020.90 1021.00 1021.03 1021.00 1020.89 1020.73 1020.52 1020.29 1020.06 1019.84 1019.64 1019.45 1019.26 1019.02 1018.74 1018.38 1017.94 1017.44 1016.89 1016.35 1015.84 1015.40 1015.05 1014.82 1014.70 1014.67 1014.71
1018.53 1018.84 1019.16 1019.48 1019.75 1019.96 1020.11 1020.20 1020.25 1020.27 1020.29 1020.33 1020.41 1020.53 1020.69 1020.86 1021.02 1021.16 1021.24 1021.26 1021.22 1021.12 1020.97 1020.80 1020.63 1020.46 1020.31 1020.16 1019.99 1019.79 1019.53 1019.20 1018.79 1018.32 1017.79 1017.26 1016.75 1016.30 1015.93 1015.65 1015.47 1015.38 1015.35
1018.81 1019.13 1019.45 1019.76 1020.01 1020.20 1020.31 1020.36 1020.36 1020.34 1020.32 1020.33 1020.40 1020.51 1020.67 1020.85 1021.05 1021.22 1021.36 1021.43 1021.45 1021.40 1021.32 1021.21 1021.10 1020.99 1020.89 1020.79 1020.68 1020.52 1020.32 1020.04 1019.69 1019.27 1018.80 1018.31 1017.83 1017.39 1017.02 1016.72 1016.50 1016.36 1016.28
1019.06 1019.39 1019.71 1020.00 1020.24 1020.40 1020.49 1020.50 1020.47 1020.41 1020.35 1020.34 1020.37 1020.47 1020.63 1020.82 1021.03 1021.24 1021.40 1021.52 1021.59 1021.60 1021.56 1021.51 1021.45 1021.39 1021.34 1021.30 1021.24 1021.15 1021.01 1020.81 1020.53 1020.19 1019.79 1019.37 1018.95 1018.55 1018.20 1017.91 1017.68 1017.51 1017.40
1019.25 1019.58 1019.91 1020.19 1020.42 1020.57 1020.64 1020.63 1020.58 1020.49 1020.42 1020.38 1020.40 1020.48 1020.62 1020.81 1021.03 1021.24 1021.42 1021.56 1021.66 1021.70 1021.70 1021.69 1021.66 1021.65 1021.64 1021.64 1021.63 1021.60 1021.52 1021.39 1021.20 1020.94 1020.64 1020.31 1019.96 1019.63 1019.33 1019.07 1018.86 1018.69 1018.57
1019.36 1019.69 1020.00 1020.29 1020.52 1020.67 1020.74 1020.74 1020.68 1020.60 1020.52 1020.48 1020.48 1020.55 1020.68 1020.85 1021.06 1021.26 1021.44 1021.58 1021.68 1021.73 1021.75 1021.75 1021.75 1021.75 1021.76 1021.79 1021.81 1021.82 1021.80 1021.74 1021.62 1021.45 1021.24 1021.00 1020.75 1020.50 1020.27 1020.07 1019.90 1019.76 1019.64
1019.38 1019.69 1020.00 1020.28 1020.51 1020.68 1020.78 1020.81 1020.78 1020.72 1020.67 1020.63 1020.64 1020.69 1020.81 1020.96 1021.13 1021.31 1021.47 1021.59 1021.67 1021.71 1021.72 1021.72 1021.71 1021.72 1021.73 1021.77 1021.80 1021.84 1021.85 1021.83 1021.77 1021.68 1021.55 1021.40 1021.24 1021.08 1020.93 1020.80 1020.68 1020.59 1020.50
1019.32 1019.60 1019.89 1020.16 1020.41 1020.60 1020.74 1020.82 1020.84 1020.84 1020.82 1020.80 1020.82 1020.88 1020.98 1021.10 1021.24 1021.39 1021.51 1021.60 1021.65 1021.67 1021.66 1021.64 1021.61 1021.60 1021.60 1021.62 1021.65 1021.68 1021.70 1021.70 1021.68 1021.63 1021.57 1021.49 1021.40 1021.33 1021.26 1021.20 1021.16 1021.12 1021.08
1019.20 1019.44 1019.70 1019.97 1020.23 1020.46 1020.64 1020.78 1020.86 1020.91 1020.94 1020.97 1021.01 1021.07 1021.15 1021.26 1021.37 1021.47 1021.56 1021.61 1021.63 1021.62 1021.59 1021.54 1021.49 1021.45 1021.42 1021.41 1021.42 1021.42 1021.43 1021.43 1021.41 1021.38 1021.35 1021.32 1021.30 1021.28 1021.29 1021.30 1021.32 1021.34 1021.34
1019.06 1019.26 1019.49 1019.75 1020.02 1020.27 1020.50 1020.69 1020.83 1020.94 1021.02 1021.08 1021.14 1021.21 1021.29 1021.38 1021.47 1021.54 1021.60 1021.63 1021.62 1021.59 1021.53 1021.46 1021.39 1021.32 1021.27 1021.22 1021.19 1021.16 1021.13 1021.10 1021.06 1021.03 1021.00 1020.98 1020.99 1021.02 1021.07 1021.14 1021.21 1021.28 1021.34
1018.95 1019.10 1019.31 1019.56 1019.83 1020.10 1020.36 1020.58 1020.77 1020.92 1021.03 1021.13 1021.21 1021.29 1021.37 1021.45 1021.52 1021.58 1021.62 1021.63 1021.61 1021.57 1021.51 1021.43 1021.34 1021.26 1021.18 1021.10 1021.03 1020.96 1020.88 1020.80 1020.73 1020.66 1020.61 1020.59 1020.59 1020.64 1020.71 1020.81 1020.93 1021.04 1021.14
1018.87 1019.01 1019.20 1019.44 1019.70 1019.97 1020.24 1020.48 1020.68 1020.85 1020.99 1021.10 1021.19 1021.28 1021.36 1021.44 1021.51 1021.56 1021.60 1021.61 1021.60 1021.56 1021.50 1021.43 1021.34 1021.25 1021.16 1021.06 1020.95 1020.84 1020.72 1020.60 1020.47 1020.36 1020.26 1020.21 1020.19 1020.22 1020.30 1020.42 1020.55 1020.70 1020.82
1018.85 1018.98 1019.17 1019.40 1019.65 1019.91 1020.16 1020.39 1020.59 1020.75 1020.88 1020.99 1021.09 1021.18 1021.26 1021.35 1021.43 1021.49 1021.54 1021.56 1021.57 1021.54 1021.50 1021.44 1021.36 1021.28 1021.18 1021.07 1020.95 1020.81 1020.65 1020.48 1020.31 1020.15 1020.00 1019.90 1019.85 1019.85 1019.91 1020.02 1020.17 1020.32 1020.48
1018.85 1019.00 1019.20 1019.42 1019.66 1019.90 1020.12 1020.32 1020.48 1020.62 1020.73 1020.83 1020.92 1021.01 1021.10 1021.19 1021.28 1021.36 1021.43 1021.47 1021.48 1021.48 1021.45 1021.41 1021.35 1021.28 1021.20 1021.09 1020.97 1020.82 1020.64 1020.45 1020.24 1020.04 1019.85 1019.70 1019.60 1019.57 1019.60 1019.69 1019.83 1019.99 1020.16
1018.83 1019.03 1019.24 1019.46 1019.68 1019.89 1020.08 1020.23 1020.35 1020.45 1020.53 1020.61 1020.69 1020.78 1020.88 1020.98 1021.09 1021.18 1021.26 1021.31 1021.35 1021.35 1021.34 1021.32 1021.28 1021.22 1021.16 1021.07 1020.96 1020.83 1020.65 1020.45 1020.23 1020.00 1019.79 1019.60 1019.47 1019.40 1019.39 1019.46 1019.58 1019.73 1019.90
1018.75 1018.99 1019.22 1019.45 1019.65 1019.83 1019.97 1020.08 1020.15 1020.22 1020.28 1020.34 1020.42 1020.51 1020.62 1020.74 1020.86 1020.96 1021.05 1021.11 1021.14 1021.15 1021.14 1021.12 1021.10 1021.07 1021.03 1020.97 1020.90 1020.79 1020.65 1020.47 1020.26 1020.04 1019.81 1019.61 1019.45 1019.35 1019.31 1019.35 1019.44 1019.58 1019.74
1018.55 1018.83 1019.08 1019.31 1019.49 1019.64 1019.75 1019.82 1019.87 1019.91 1019.96 1020.02 1020.11 1020.22 1020.34 1020.48 1020.60 1020.72 1020.80 1020.85 1020.87 1020.87 1020.85 1020.84 1020.82 1020.80 1020.80 1020.78 1020.75 1020.70 1020.60 1020.48 1020.31 1020.11 1019.91 1019.71 1019.54 1019.42 1019.36 1019.37 1019.44 1019.55 1019.68
1018.20 1018.51 1018.77 1019.00 1019.17 1019.30 1019.38 1019.44 1019.48 1019.52 1019.58 1019.66 1019.77 1019.91 1020.05 1020.20 1020.34 1020.44 1020.52 1020.55 1020.55 1020.53 1020.50 1020.48 1020.47 1020.47 1020.50 1020.53 1020.56 1020.56 1020.54 1020.48 1020.37 1020.23 1020.07 1019.90 1019.74 1019.62 1019.54 1019.52 1019.56 1019.63 1019.73
1017.71 1018.02 1018.29 1018.50 1018.67 1018.79 1018.87 1018.93 1018.99 1019.06 1019.14 1019.26 1019.41 1019.58 1019.75 1019.92 1020.06 1020.16 1020.22 1020.23 1020.21 1020.17 1020.13 1020.10 1020.09 1020.12 1020.18 1020.26 1020.35 1020.43 1020.48 1020.50 1020.47 1020.39 1020.28 1020.15 1020.02 1019.91 1019.83 1019.78 1019.79 1019.82 1019.87
Thickness
5721 5719 5718 5716 5715 5715 5715 5714 5715 5715 5715 5714 5713 5713 5712 5711 5710 5710 5708 5707 5708 5709 5709 5709 5709 5708 5708 5708 5708 5708 5708 5708 5708 5708 5708 5708 5709 5709 5710 5712 5711 5711 5710
5716 5715 5714 5712 5711 5711 5711 5711 5711 5710 5709 5708 5707 5707 5707 5706 5706 5705 5704 5703 5702 5703 5703 5704 5704 5703 5703 5703 5703 5703 5703 5703 5703 5703 5704 5704 5704 5704 5705 5705 5705 5706 5706
5713 5711 5711 5709 5708 5707 5707 5707 5706 5705 5704 5703 5702 5702 5701 5701 5701 5701 5700 5700 5699 5698 5698 5698 5699 5699 5699 5699 5699 5698 5698 5698 5698 5699 5699 5699 5699 5700 5700 5700 5700 5701 5701
5709 5708 5707 5706 5704 5704 5703 5703 5702 5701 5700 5699 5698 5696 5696 5695 5695 5695 5695 5695 5694 5694 5693 5692 5693 5694 5694 5695 5695 5694 5694 5694 5694 5694 5694 5694 5694 5694 5695 5695 5696 5695 5695
5706 5705 5703 5702 5701 5700 5700 5699 5698 5697 5695 5693 5692 5691 5691 5690 5690 5690 5690 5690 5689 5689 5689 5688 5688 5688 5689 5690 5690 5690 5689 5689 5689 5689 5689 5689 5689 5689 5690 5690 5690 5690 5690
5702 5701 5700 5699 5698 5697 5696 5695 5693 5692 5691 5689 5689 5686 5685 5685 5685 5684 5685 5684 5684 5684 5684 5684 5684 5684 5683 5684 5684 5685 5684 5684 5684 5684 5684 5683 5684 5684 5684 5685 5684 5684 5684
5699 5698 5697 5696 5695 5694 5692 5692 5690 5688 5687 5687 5685 5682 5681 5682 5681 5679 5679 5680 5679 5679 5679 5679 5679 5680 5680 5678 5678 5679 5679 5680 5679 5679 5678 5678 5679 5679 5679 5679 5679 5678 5678
5695 5695 5694 5694 5692 5690 5688 5687 5686 5685 5684 5684 5683 5681 5679 5677 5675 5675 5675 5674 5675 5675 5675 5675 5674 5675 5675 5674 5673 5673 5673 5674 5674 5674 5673 5673 5673 5673 5673 5673 5672 5672 5672
5692 5691 5691 5690 5689 5688 5686 5684 5683 5681 5680 5681 5682 5679 5676 5674 5672 5671 5671 5670 5669 5669 5669 5669 5669 5670 5670 5669 5669 5668 5668 5668 5668 5668 5668 5667 5667 5667 5666 5666 5666 5666 5665
5689 5688 5688 5687 5686 5685 5683 5682 5681 5681 5678 5677 5677 5676 5677 5675 5671 5668 5667 5666 5665 5664 5664 5664 5664 5664 5664 5664 5663 5662 5662 5662 5662 5662 5662 5661 5661 5660 5660 5659 5659 5659 5659
5686 5685 5684 5683 5683 5682 5681 5679 5678 5678 5677 5675 5674 5673 5671 5670 5670 5667 5663 5661 5661 5660 5659 5658 5658 5659 5659 5659 5658 5657 5656 5656 5656 5656 5656 5655 5655 5654 5654 5653 5653 5653 5653
5684 5683 5681 5681 5681 5680 5679 5677 5676 5675 5674 5673 5672 5671 5668 5667 5665 5664 5661 5658 5657 5656 5654 5653 5654 5654 5654 5654 5653 5651 5651 5651 5650 5650 5650 5649 5649 5648 5648 5647 5647 5647 5646
5681 5681 5679 5679 5678 5677 5676 5675 5674 5672 5671 5669 5668 5668 5667 5665 5664 5662 5659 5657 5654 5652 5651 5651 5649 5649 5649 5648 5647 5646 5645 5645 5644 5644 5644 5643 5643 5642 5642 5642 5642 5642 5641
5680 5678 5677 5676 5675 5673 5672 5671 5670 5669 5668 5667 5665 5664 5663 5662 5660 5659 5657 5654 5651 5649 5648 5647 5645 5644 5643 5643 5641 5641 5641 5639 5639 5638 5638 5637 5637 5637 5636 5636 5636 5636 5635
5676 5675 5674 5673 5671 5670 5669 5668 5666 5665 5664 5663 5662 5661 5659 5658 5657 5656 5654 5653 5651 5647 5645 5643 5642 5639 5637 5636 5635 5636 5636 5634 5633 5633 5632 5632 5632 5631 5631 5631 5630 5630 5629
5673 5672 5671 5670 5668 5667 5665 5663 5662 5661 5660 5658 5657 5656 5655 5654 5653 5651 5650 5649 5649 5648 5643 5641 5638 5635 5633 5632 5630 5631 5630 5629 5628 5627 5627 5627 5626 5626 5626 5626 5625 5624 5624
5669 5668 5667 5666 5665 5664 5662 5660 5659 5657 5656 5656 5654 5653 5651 5650 5648 5647 5646 5645 5644 5643 5639 5636 5634 5632 5630 5629 5627 5626 5626 5626 5624 5623 5622 5622 5621 5621 5620 5620 5619 5619 5618
5666 5665 5664 5663 5663 5661 5660 5658 5656 5654 5653 5652 5651 5649 5647 5645 5644 5643 5641 5640 5639 5638 5636 5632 5630 5628 5626 5625 5624 5622 5622 5622 5621 5618 5617 5617 5616 5615 5614 5614 5613 5613 5612
5663 5662 5661 5660 5659 5658 5656 5654 5653 5652 5650 5649 5648 5646 5644 5642 5640 5638 5636 5636 5635 5633 5631 5629 5627 5624 5622 5620 5619 5618 5618 5617 5617 5615 5613 5612 5611 5610 5609 5609 5608 5607 5606
5660 5660 5659 5657 5656 5655 5654 5652 5650 5649 5647 5646 5644 5642 5641 5639 5637 5636 5633 5632 5630 5628 5627 5625 5623 5620 5617 5615 5614 5614 5613 5613 5613 5612 5610 5608 5607 5606 5605 5604 5603 5602 5601
5656 5656 5655 5654 5653 5651 5651 5649 5647 5645 5644 5642 5640 5638 5636 5634 5631 5630 5629 5628 5626 5624 5622 5621 5619 5617 5614 5611 5611 5611 5610 5609 5609 5608 5607 5606 5605 5604 5602 5600 5599 5597 5596
5651 5651 5650 5650 5648 5647 5644 5641 5641 5640 5639 5637 5635 5633 5631 5627 5624 5621 5620 5619 5619 5620 5620 5617 5616 5614 5613 5611 5608 5607 5606 5605 5605 5604 5603 5602 5601 5600 5599 5597 5595 5593 5591
5646 5645 5645 5644 5643 5641 5638 5636 5634 5635 5634 5633 5631 5629 5626 5624 5620 5620 5616 5613 5612 5611 5611 5613 5613 5612 5610 5608 5605 5603 5602 5601 5600 5600 5597 5598 5597 5596 5594 5592 5590 5588 5586
5641 5640 5640 5639 5638 5636 5632 5631 5628 5629 5630 5628 5626 5624 5622 5620 5617 5615 5614 5613 5612 5609 5606 5605 5607 5607 5605 5602 5600 5599 5598 5596 5596 5593 5591 5592 5593 5591 5590 5588 5584 5583 5581
5636 5635 5635 5634 5632 5631 5627 5625 5623 5624 5624 5623 5621 5619 5617 5615 5611 5607 5608 5607 5606 5605 5601 5599 5598 5597 5595 5593 5592 5592 5591 5590 5590 5590 5587 5587 5588 5586 5585 5583 5580 5577 5575
5631 5630 5630 5629 5628 5628 5623 5620 5617 5620 5619 5618 5616 5613 5609 5608 5605 5602 5602 5602 5601 5600 5598 5595 5592 5591 5589 5587 5585 5585 5586 5585 5585 5585 5583 5580 5582 5580 5580 5579 5576 5573 5571